Weather History for KSTP - April, 2013

Change the Weather History Date:

Sunday, April 7, 2013

  Actual Average Record
Temperature  
Mean Temperature 42 °F -  
Max Temperature 48 °F 52 °F 71 °F (1999)
Min Temperature 36 °F 33 °F 17 °F (2007)
Degree Days  
Heating Degree Days 23    
Moisture  
Dew Point 32 °F    
Average Humidity 72    
Maximum Humidity 86    
Minimum Humidity 58    
Precipitation  
Precipitation 0.08 in - - ()
Sea Level Pressure  
Sea Level Pressure 29.87 in    
Wind  
Wind Speed 9 mph (SSW)    
Max Wind Speed 13 mph    
Max Gust Speed -    
Visibility 10 miles    
Events Rain    
Averages and records for this station are not official NWS values.
T = Trace of Precipitation, MM = Missing Value Source: NWS Daily Summary

Daily Weather History Graph

Daily Weather History Graph

Search for Another Location

Airport or City:

Trip Planner

Search our weather history database for the weather conditions in past years. The results will help you decide how hot, cold, wet, or windy it might be!

Date:

Astronomy

Apr. 07, 2013 Rise Set
Actual Time 6:41 AM CDT 7:47 PM CDT
Civil Twilight 6:11 AM CDT 8:17 PM CDT
Nautical Twilight 5:35 AM CDT 8:54 PM CDT
Astronomical Twilight 4:57 AM CDT 9:32 PM CDT
Moon 5:05 AM CDT (4/7) 5:15 PM CDT (4/7)
Length of Visible Light 14h 06m
Length of Day
13h 06m
Waning Crescent, 8% of the Moon is Illuminated
Apr 7
Waning Crescent
Apr 10
New
Apr 18
First Quarter
Apr 25
Full
May 2
Last Quarter

Hourly Weather History & Observations

Time (CDT) Temp. Windchill Dew Point Humidity Pressure Visibility Wind Dir Wind Speed Gust Speed Precip Events Conditions
12:45 AM 37.4 °F 29.8 °F 32.0 °F 81% 29.78 in 10.0 mi NW 11.5 mph - N/A   Overcast
12:53 AM 37.9 °F 31.5 °F 32.0 °F 79% 29.79 in 10.0 mi WNW 9.2 mph - N/A   Overcast
1:24 AM 37.4 °F 30.3 °F 32.0 °F 81% 29.78 in 10.0 mi NW 10.4 mph - N/A   Overcast
1:53 AM 37.0 °F 31.0 °F 32.0 °F 82% 29.80 in 10.0 mi NW 8.1 mph - N/A   Overcast
2:45 AM 37.4 °F 31.4 °F 32.0 °F 81% 29.80 in 10.0 mi NW 8.1 mph - N/A   Mostly Cloudy
2:53 AM 37.0 °F 31.0 °F 32.0 °F 82% 29.80 in 10.0 mi NW 8.1 mph - N/A   Overcast
3:53 AM 37.0 °F 28.9 °F 30.9 °F 79% 29.81 in 10.0 mi NW 12.7 mph - N/A   Overcast
4:53 AM 37.0 °F 28.9 °F 30.0 °F 76% 29.84 in 10.0 mi NW 12.7 mph - N/A   Overcast
5:53 AM 36.0 °F 30.3 °F 30.0 °F 79% 29.87 in 10.0 mi NW 6.9 mph - N/A   Overcast
6:53 AM 36.0 °F 30.3 °F 30.0 °F 79% 29.90 in 10.0 mi NW 6.9 mph - N/A   Overcast
7:53 AM 37.0 °F 31.6 °F 30.0 °F 76% 29.91 in 10.0 mi NNW 6.9 mph - N/A   Overcast
8:53 AM 37.0 °F 32.4 °F 30.0 °F 76% 29.93 in 10.0 mi NNW 5.8 mph - N/A   Overcast
9:53 AM 37.0 °F 32.4 °F 30.0 °F 76% 29.94 in 10.0 mi North 5.8 mph - N/A   Overcast
10:53 AM 37.9 °F - 30.0 °F 73% 29.96 in 10.0 mi Calm Calm - N/A   Overcast
11:53 AM 39.9 °F 36.7 °F 30.0 °F 68% 29.97 in 10.0 mi West 4.6 mph - N/A   Overcast
12:53 PM 41.0 °F 39.0 °F 30.0 °F 65% 29.95 in 10.0 mi South 3.5 mph - N/A   Overcast
1:25 PM 42.8 °F 38.6 °F 30.2 °F 61% 29.93 in 10.0 mi East 6.9 mph - N/A   Scattered Clouds
1:53 PM 45.0 °F 43.5 °F 30.9 °F 58% 29.93 in 10.0 mi SSE 3.5 mph - N/A   Partly Cloudy
2:20 PM 44.6 °F 40.2 °F 32.0 °F 61% 29.91 in 8.0 mi SSE 8.1 mph - N/A   Mostly Cloudy
2:53 PM 45.0 °F 39.7 °F 32.0 °F 60% 29.91 in 8.0 mi SSE 10.4 mph - N/A   Mostly Cloudy
3:15 PM 44.6 °F 39.2 °F 32.0 °F 61% 29.89 in 8.0 mi SE 10.4 mph - N/A   Partly Cloudy
3:53 PM 46.9 °F - 33.1 °F 59% 29.89 in 9.0 mi SSE 12.7 mph - N/A   Partly Cloudy
4:53 PM 48.0 °F - 34.0 °F 58% 29.86 in 10.0 mi SE 6.9 mph - N/A   Clear
5:53 PM 46.9 °F - 34.0 °F 61% 29.86 in 10.0 mi SSE 9.2 mph - N/A   Clear
6:53 PM 46.0 °F 41.9 °F 35.1 °F 66% 29.86 in 10.0 mi SE 8.1 mph - N/A   Clear
7:53 PM 45.0 °F 41.2 °F 34.0 °F 65% 29.85 in 10.0 mi ESE 6.9 mph - N/A   Overcast
8:53 PM 44.1 °F 40.8 °F 35.1 °F 71% 29.86 in 10.0 mi SE 5.8 mph - 0.00 in Rain Light Rain
9:53 PM 43.0 °F 38.8 °F 35.1 °F 74% 29.83 in 10.0 mi ESE 6.9 mph - 0.00 in   Overcast
10:53 PM 42.1 °F 37.7 °F 36.0 °F 79% 29.83 in 7.0 mi SE 6.9 mph - 0.02 in Rain Light Rain
11:53 PM 41.0 °F 34.3 °F 37.0 °F 86% 29.78 in 5.0 mi SE 11.5 mph - 0.06 in Rain Light Rain